Location: Boiro
(42.6475°N, 8.8834°W)
Time: 06:12:13
(UTC+01:00)

Vanguard 1 - Pass Details

Date: 06 December 2021
Orbit: 652 x 3830 km, 34.2° (Epoch: 21 January)

Event Time Altitude Azimuth Distance (km) Brightness Sun altitude
Rises 23:43:36 0° 219° (SW) 6,556 14.3 -60.6°
Reaches altitude 10° 23:47:44 10° 213° (SSW) 5,893 13.9 -61.2°
Enters shadow 23:48:51 13° 211° (SSW) 5,728 13.8 -61.4°
Maximum altitude 00:06:15 46° 147° (SSE) 4,532 - -63.8°
Drops below altitude 10° 00:27:09 10° 84° (E) 6,628 - -66.4°
Exits shadow 00:30:08 - 81° (E) 7,087 14.3 -66.7°
Sets 00:32:06 0° 79° (E) 7,400 14.4 -66.9°
